Fort Eustis, VA

1:28 AM EST on November 18, 2019 (GMT -0500)
Felker Army Air Field

Weather History for KFAF - September, 2019

Change the Weather History Date:

Tuesday, September 3, 2019

  Actual Average Record
Temperature  
Mean Temperature 79 °F -  
Max Temperature 87 °F 81 °F 93 °F (2008)
Min Temperature 72 °F 67 °F 60 °F (2002)
Cooling Degree Days 14    
Growing Degree Days 29 (Base 50)    
Moisture  
Dew Point 70 °F    
Average Humidity 73    
Maximum Humidity 91    
Minimum Humidity 51    
Precipitation  
Precipitation 0.00 in - - ()
Sea Level Pressure  
Sea Level Pressure 30.00 in    
Wind  
Wind Speed 4 mph ()    
Max Wind Speed 12 mph    
Max Gust Speed -    
Visibility 10.0 miles    
Events      
Averages and records for this station are not official NWS values.
T = Trace of Precipitation, MM = Missing Value Source: Averaged Metar Reports

Daily Weather History Graph

Daily Weather History Graph

Search for Another Location

Airport or City:

Astronomy

Sep. 03, 2019 Rise Set
Actual Time 6:38 AM EDT 7:32 PM EDT
Civil Twilight 6:12 AM EDT 7:58 PM EDT
Nautical Twilight 5:40 AM EDT 8:30 PM EDT
Astronomical Twilight 5:08 AM EDT 9:02 PM EDT
Moon 11:22 AM EDT (9/3) 10:35 PM EDT (9/3)
Length of Visible Light 13h 46m
Length of Day
12h 53m
Waxing Crescent, 24% of the Moon is Illuminated
Sep 3
Waxing Crescent
Sep 5
First Quarter
Sep 14
Full
Sep 21
Last Quarter
Sep 28
New

Hourly Weather History & Observations

Time (EDT) Temp. Heat Index Dew Point Humidity Pressure Visibility Wind Dir Wind Speed Gust Speed Precip Events Conditions
12:56 AM 76.5 °F - 71.2 °F 84% 29.99 in 10.0 mi South 6.9 mph - N/A   Clear
1:56 AM 75.9 °F - 71.1 °F 85% 29.98 in 10.0 mi SSW 5.8 mph - N/A   Clear
3:56 AM 74.1 °F - 69.6 °F 86% 29.97 in 10.0 mi Calm Calm - N/A   Partly Cloudy
4:56 AM 73.4 °F - 69.6 °F 88% 29.96 in 10.0 mi Calm Calm - N/A   Clear
5:56 AM 72.9 °F - 69.6 °F 90% 29.98 in 10.0 mi Calm Calm - N/A   Partly Cloudy
6:56 AM 72.9 °F - 70.0 °F 91% 29.99 in 10.0 mi Calm Calm - N/A   Clear
7:56 AM 74.7 °F - 71.8 °F 91% 30.01 in 10.0 mi Calm Calm - N/A   Clear
7:57 AM 74.8 °F - 72.0 °F 91% 30.01 in 10.0 mi Calm Calm - N/A   Partly Cloudy
9:16 AM 80.6 °F 84.6 °F 71.6 °F 74% 30.01 in 10.0 mi NNE 4.6 mph - N/A   Scattered Clouds
9:56 AM 82.4 °F 87.2 °F 71.6 °F 70% 30.02 in 10.0 mi NE 4.6 mph - N/A   Mostly Cloudy
10:56 AM 84.2 °F 89.0 °F 70.7 °F 64% 30.02 in 10.0 mi ENE 6.9 mph - N/A   Mostly Cloudy
11:56 AM 84.2 °F 88.1 °F 69.6 °F 61% 30.01 in 10.0 mi East 5.8 mph - N/A   Scattered Clouds
12:56 PM 84.9 °F 88.8 °F 68.9 °F 59% 30.00 in 10.0 mi East 4.6 mph - N/A   Mostly Cloudy
1:18 PM 86.0 °F 90.4 °F 69.8 °F 58% 30.01 in 10.0 mi NE 5.8 mph - N/A   Mostly Cloudy
1:20 PM 86.0 °F 90.4 °F 69.8 °F 58% 30.01 in 10.0 mi NE 4.6 mph - N/A   Light Drizzle
1:27 PM 86.0 °F 89.4 °F 68.0 °F 55% 30.01 in 10.0 mi NE 5.8 mph - N/A   Mostly Cloudy
1:56 PM 85.6 °F 89.1 °F 68.5 °F 56% 30.00 in 10.0 mi ENE 8.1 mph - 0.00 in   Scattered Clouds
2:56 PM 86.9 °F 90.3 °F 67.6 °F 53% 30.00 in 10.0 mi ENE 8.1 mph - N/A   Scattered Clouds
3:56 PM 86.2 °F 88.4 °F 65.8 °F 51% 29.99 in 10.0 mi ENE 11.5 mph - N/A   Partly Cloudy
4:56 PM 85.1 °F 87.9 °F 67.1 °F 55% 29.99 in 10.0 mi ESE 9.2 mph - N/A   Partly Cloudy
5:56 PM 82.6 °F 86.8 °F 70.5 °F 67% 30.00 in 10.0 mi ENE 8.1 mph - N/A   Scattered Clouds
6:56 PM 80.6 °F 83.9 °F 69.8 °F 70% 30.00 in 10.0 mi ESE 5.8 mph - N/A   Partly Cloudy
7:56 PM 77.9 °F - 68.5 °F 73% 30.01 in 10.0 mi SE 4.6 mph - N/A   Scattered Clouds
8:56 PM 75.9 °F - 68.5 °F 78% 30.01 in 10.0 mi ESE 4.6 mph - N/A   Partly Cloudy
9:56 PM 75.0 °F - 69.4 °F 83% 30.01 in 10.0 mi ESE 3.5 mph - N/A   Partly Cloudy
10:56 PM 74.8 °F - 70.0 °F 85% 30.01 in 10.0 mi ESE 4.6 mph - N/A   Clear
11:56 PM 75.4 °F - 70.5 °F 85% 30.00 in 10.0 mi Calm Calm - N/A   Clear